Tracking 17828 objects as of 30-July-2016
HD Live streaming from Space Station
objects crossing your sky now

SL-12 R/B(2)

Track SL-12 R/B(2) now!


NORAD ID: 24919
Int'l Code: 1997-046D
Perigee: -6,371.0 km
Apogee: -6,371.0 km
Inclination: 13.8 °
Period: 0.0 minutes
Semi major axis: 0 km
RCS: 29.9426 m2 (large)
Launch date: August 28, 1997
Source: Commonwealth of Independent States (former USSR) (CIS)
Launch site: TYURATAM MISSILE AND SPACE COMPLEX (TTMTR)

Note: This is a ROCKET BODY
Your satellite tracking list
Your tracking list is empty





NASA's NSSDC Master Catalog

Two Line Element Set (TLE):
1 24919U 97046D   16211.69071098 -.00000100 +00000-0 +00000-0 0  9994
2 24919 013.7981 086.7253 4811808 108.3012 254.4241 01.79819142124216
Source of the keplerian elements: AFSPC

N2YO: 862